Change the Weather History Date:

Tuesday, October 2, 2012

  Actual Average Record
Temperature  
Mean Temperature 53 °F 57 °F  
Max Temperature 74 °F 70 °F 93 °F (1992)
Min Temperature 32 °F 44 °F 28 °F (1999)
Degree Days  
Heating Degree Days 12 9  
Month to date heating degree days 21 18  
Since 1 July heating degree days 140 160  
Cooling Degree Days 0 1  
Month to date cooling degree days 0 2  
Year to date cooling degree days 1373 908  
Growing Degree Days 3 (Base 50)    
Moisture  
Dew Point 29 °F    
Average Humidity 49    
Maximum Humidity 82    
Minimum Humidity 15    
Precipitation  
Precipitation 0.00 in 0.08 in 1.17 in (2013)
Month to date precipitation 0.05 0.17  
Year to date precipitation 12.50 23.39  
Snow  
Snow 0.00 in 0.00 in - ()
Month to date snowfall 0.0 0.0  
Since 1 July snowfall 0.0 T  
Snow Depth 0.00 in    
Sea Level Pressure  
Sea Level Pressure 29.94 in    
Wind  
Wind Speed 7 mph (SSW)    
Max Wind Speed 16 mph    
Max Gust Speed 23 mph    
Visibility 10 miles    
Events      
T = Trace of Precipitation, MM = Missing Value Source: NWS Daily Summary

Daily Weather History Graph

Daily Weather History Graph

Search for Another Location

Airport or City:

Trip Planner

Search our weather history database for the weather conditions in past years. The results will help you decide how hot, cold, wet, or windy it might be!

Date:

Astronomy

Oct. 02, 2012 Rise Set
Actual Time 7:28 AM CDT 7:08 PM CDT
Civil Twilight 7:00 AM CDT 7:36 PM CDT
Nautical Twilight 6:28 AM CDT 8:08 PM CDT
Astronomical Twilight 5:55 AM CDT 8:41 PM CDT
Moon 8:18 PM CDT (10/2) 9:59 AM CDT (10/2)
Length of Visible Light 12h 36m
Length of Day
11h 40m
Waning Gibbous, 94% of the Moon is Illuminated
Oct 2
Waning Gibbous
Oct 8
Last Quarter
Oct 15
New
Oct 21
First Quarter
Oct 29
Full

Hourly Weather History & Observations

Time (CDT) Temp. Windchill Dew Point Humidity Pressure Visibility Wind Dir Wind Speed Gust Speed Precip Events Conditions
1:56 AM 42.1 °F 40.2 °F 35.1 °F 76% 30.04 in 8.0 mi WNW 3.5 mph - N/A   Clear
2:56 AM 39.0 °F 36.8 °F 33.1 °F 79% 30.02 in 10.0 mi West 3.5 mph - N/A   Clear
3:56 AM 37.9 °F - 32.0 °F 79% 30.03 in 10.0 mi Calm Calm - N/A   Clear
4:56 AM 37.0 °F - 30.0 °F 76% 30.01 in 10.0 mi Calm Calm - N/A   Clear
5:56 AM 36.0 °F - 30.0 °F 79% 30.01 in 6.0 mi Calm Calm - N/A   Haze
6:56 AM 35.1 °F - 28.9 °F 78% 30.02 in 10.0 mi Calm Calm - N/A   Clear
7:56 AM 33.1 °F 30.0 °F 28.0 °F 82% 30.03 in 9.0 mi WNW 3.5 mph - N/A   Clear
8:56 AM 41.0 °F - 33.1 °F 73% 30.02 in 10.0 mi Calm Calm - N/A   Clear
9:56 AM 52.0 °F - 35.1 °F 53% 30.01 in 10.0 mi Calm Calm - N/A   Clear
10:56 AM 63.0 °F - 27.0 °F 26% 29.98 in 10.0 mi South 6.9 mph - N/A   Clear
11:56 AM 66.0 °F - 30.0 °F 26% 29.96 in 10.0 mi South 10.4 mph - N/A   Clear
12:56 PM 69.1 °F - 28.0 °F 22% 29.93 in 10.0 mi SSW 13.8 mph 17.3 mph N/A   Clear
1:56 PM 71.1 °F - 27.0 °F 19% 29.89 in 10.0 mi SSW 12.7 mph - N/A   Clear
3:56 PM 73.0 °F - 23.0 °F 15% 29.85 in 10.0 mi South 13.8 mph - N/A   Clear
4:56 PM 73.9 °F - 23.0 °F 15% 29.83 in 10.0 mi SSW 11.5 mph - N/A   Clear
5:56 PM 73.0 °F - 23.0 °F 15% 29.83 in 10.0 mi South 11.5 mph - N/A   Clear
6:56 PM 66.0 °F - 26.1 °F 22% 29.84 in 10.0 mi South 6.9 mph - N/A   Clear
7:56 PM 57.9 °F - 27.0 °F 31% 29.85 in 10.0 mi SSE 8.1 mph - N/A   Clear
9:56 PM 54.0 °F - 27.0 °F 35% 29.85 in 10.0 mi South 9.2 mph - N/A   Clear
10:56 PM 57.9 °F - 27.0 °F 31% 29.84 in 10.0 mi South 10.4 mph - N/A   Clear
11:56 PM 57.0 °F - 27.0 °F 32% 29.84 in 10.0 mi South 11.5 mph - N/A   Clear